Flag for Russia Weather past 2 weeks in Syktyvkar, Russia

Now
57 °F

Scattered clouds.


Feels Like: 57 °F
Forecast: 64 / 74 °F
Wind: 1 mph from North

Location: Syktyvkar Airport

Current Time: Jul 29, 2015 at 5:48:31 AM

Latest Report: Jul 29, 2015 at 5:00 AM


Visibility: 5 mi

Pressure: 29.89 "Hg

Humidity: 94%

Dew point: 55 °F

Location of SyktyvkarLocation

Historic Weather in Syktyvkar — Graph

°F

Syktyvkar temperature yesterday

Maximum temperature yesterday: 73 °F (at 4:30 PM)
Minimum temperature yesterday: 46 °F (at 3:00 AM)
Average temperature yesterday: 61 °F

Past Weeks' High & Low Weather Summary

 TemperatureHumidityPressure
High73 °F (Jul 28, 4:30 PM)100% (Jul 16, 2:30 AM)29.95 "Hg (Jul 16, 2:30 AM)
Low41 °F (Jul 24, 1:30 AM)31% (Jul 26, 3:30 PM)29.39 "Hg (Jul 21, 3:30 PM)
Average58 °F73%29.70 "Hg
* Reported Jul 14 5:00 AM — Jul 29 5:00 AM, Syktyvkar, Weather by CustomWeather, © 2015

Note: Actual official high and low records may vary slightly from our data, if they occured in-between our weather recording intervals... More about our weather records

Advertising

Syktyvkar weather history for previous 24 hours

 ConditionsComfort  
Time TempWeatherWind HumidityBarometerVisibility
5:00 AM
Wed, Jul 29
57 °FScattered clouds.1 mph94%29.89 "Hg5 mi
4:00 AM55 °FPassing clouds.1 mph94%29.89 "Hg5 mi
3:30 AM54 °FPassing clouds.1 mph94%29.89 "Hg4 mi
3:00 AM54 °FFog.1 mph94%29.89 "Hg3 mi
2:30 AM54 °FFog.1 mph94%29.89 "Hg2 mi
2:00 AM54 °FFog.1 mph94%29.89 "Hg2 mi
1:30 AM54 °FFog.No wind88%29.89 "Hg5 mi
12:00 AM55 °FClear.1 mph94%29.89 "Hg5 mi
11:30 PM
Tue, Jul 28
54 °FFog.1 mph94%29.89 "Hg3 mi
11:00 PM54 °FFog.No wind94%29.89 "Hg3 mi
10:30 PM55 °FClear.No wind94%29.89 "Hg4 mi
10:00 PM55 °FClear.No wind94%29.89 "Hg4 mi
9:00 PM57 °FClear.1 mph94%29.89 "Hg6 mi
8:30 PM59 °FClear.1 mph88%29.89 "Hg4 mi
8:00 PM61 °FClear.1 mph88%29.89 "Hg4 mi
7:00 PM64 °FSunny.1 mph73%29.89 "Hg10 mi
6:30 PM68 °FClear.3 mph64%29.89 "Hg6 mi
6:00 PM70 °FSunny.1 mph60%29.89 "Hg10 mi
5:30 PM70 °FSunny.No wind57%29.89 "Hg10 mi
5:00 PM72 °FSunny.3 mph53%29.89 "Hg10 mi
4:30 PM73 °FSunny.No wind47%29.89 "Hg10 mi
4:00 PM70 °FPassing clouds.3 mph57%29.89 "HgN/A
3:30 PM70 °FScattered clouds.1 mph57%29.92 "HgN/A
3:00 PM70 °FScattered clouds.3 mph57%29.92 "HgN/A
2:30 PM72 °FScattered clouds.1 mph53%29.92 "HgN/A
2:00 PM70 °FScattered clouds.3 mph57%29.92 "HgN/A
1:30 PM70 °FScattered clouds.8 mph57%29.92 "HgN/A
1:00 PM72 °FScattered clouds.6 mph53%29.92 "HgN/A
12:00 PM70 °FPassing clouds.6 mph53%29.92 "HgN/A
11:30 AM70 °FScattered clouds.3 mph57%29.92 "HgN/A
11:00 AM68 °FScattered clouds.3 mph60%29.92 "HgN/A
10:00 AM66 °FPartly sunny.1 mph64%29.95 "HgN/A
9:30 AM68 °FPartly sunny.3 mph60%29.95 "HgN/A
9:00 AM64 °FScattered clouds.3 mph68%29.95 "HgN/A
8:30 AM64 °FPassing clouds.3 mph68%29.92 "HgN/A
8:00 AM64 °FSunny.No wind68%29.95 "Hg10 mi
7:30 AM63 °FSunny.1 mph73%29.95 "Hg10 mi
7:00 AM61 °FSunny.1 mph77%29.95 "Hg10 mi
6:30 AM59 °FClear.1 mph82%29.95 "Hg6 mi
6:00 AM57 °FClear.3 mph82%29.95 "Hg6 mi
5:30 AM55 °FClear.1 mph94%29.95 "Hg5 mi
5:00 AM54 °FClear.No wind94%29.95 "Hg5 mi
Weather by CustomWeather, © 2015

See weather overviewHow to use our weather pages